Location: Freistadt
(48.5112°N, 14.5013°E)
Time: 00:35:39
(UTC+02:00)

O/OREOS (USA 219) - Pass Details

Date: 04 April 2023
Orbit: 621 x 646 km, 72.0° (Epoch: 22 May)

Event Time Altitude Azimuth Distance (km) Brightness Sun altitude
Exits shadow 03:42:05 - 134° (SE) 2,152 ? -26.0°
Reaches altitude 10° 03:42:39 10° 128° (SE) 2,031 ? -25.9°
Maximum altitude 03:44:53 14° 98° (E) 1,801 ? -25.7°
Drops below altitude 10° 03:47:07 10° 69° (ENE) 2,032 ? -25.4°
Sets 03:50:26 0° 43° (NE) 2,941 ? -25.0°
